Location: Asheville, NC
(35.6000°N, 82.5500°W)
Time: 18:48:44
(UTC-04:00)

UWE-3 - Pass Details

Date: 10 March 2018
Orbit: 585 x 684 km, 97.6° (Epoch: 19 June)

Event Time Altitude Azimuth Distance (km) Brightness Sun altitude
Rises 19:17:47 0° 168° (SSE) 2,977 ? -9.8°
Reaches altitude 10° 19:20:01 10° 169° (SSE) 2,055 ? -10.3°
Maximum altitude 19:24:30 86° 255° (WSW) 647 ? -11.2°
Drops below altitude 10° 19:28:54 10° 347° (NNW) 2,008 ? -12.1°
Sets 19:31:04 0° 348° (NNW) 2,902 ? -12.5°
